Time,TemperatureF,DewpointF,PressureIn,WindDirection,WindDirectionDegrees,WindSpeedMPH,WindSpeedGustMPH,Humidity,HourlyPrecipIn,Conditions,Clouds,dailyrainin,SoftwareType,DateUTC
2013-01-02 00:02:00,13.0,-99.9,-100.00,WNW,293,0.0,6.0,-999,0.00,,,0.00,,2013-01-02 06:02:00,
2013-01-02 00:12:00,13.0,-99.9,-100.00,WNW,293,0.0,6.0,-999,0.00,,,0.00,,2013-01-02 06:12:00,
2013-01-02 00:22:00,13.0,-99.9,-100.00,NW,315,0.0,3.0,-999,0.00,,,0.00,,2013-01-02 06:22:00,
2013-01-02 00:33:00,13.0,-99.9,-100.00,WNW,293,1.0,3.0,-999,0.00,,,0.00,,2013-01-02 06:33:00,
2013-01-02 00:43:00,13.0,-99.9,-100.00,WNW,293,1.0,3.0,-999,0.00,,,0.00,,2013-01-02 06:43:00,
2013-01-02 00:53:00,13.0,-99.9,-100.00,West,270,0.0,3.0,-999,0.00,,,0.00,,2013-01-02 06:53:00,
2013-01-02 01:02:00,13.0,-99.9,-100.00,West,270,1.0,2.0,-999,0.00,,,0.00,,2013-01-02 07:02:00,
2013-01-02 01:12:00,13.0,-99.9,-100.00,West,270,1.0,2.0,-999,0.00,,,0.00,,2013-01-02 07:12:00,
2013-01-02 01:22:00,13.0,-99.9,-100.00,West,270,0.0,2.0,-999,0.00,,,0.00,,2013-01-02 07:22:00,
2013-01-02 01:32:00,13.0,-99.9,-100.00,West,270,1.0,3.0,-999,0.00,,,0.00,,2013-01-02 07:32:00,
2013-01-02 01:42:00,13.0,-99.9,-100.00,West,270,1.0,3.0,-999,0.00,,,0.00,,2013-01-02 07:42:00,
2013-01-02 01:52:00,13.0,-99.9,-100.00,West,270,0.0,2.0,-999,0.00,,,0.00,,2013-01-02 07:52:00,
2013-01-02 02:02:00,13.0,-99.9,-100.00,West,270,0.0,1.0,-999,0.00,,,0.00,,2013-01-02 08:02:00,
2013-01-02 02:12:00,13.0,-99.9,-100.00,West,270,0.0,1.0,-999,0.00,,,0.00,,2013-01-02 08:12:00,
2013-01-02 02:22:00,14.0,-99.9,-100.00,West,270,0.0,1.0,-999,0.00,,,0.00,,2013-01-02 08:22:00,
2013-01-02 02:32:00,14.0,-99.9,-100.00,WSW,248,2.0,3.0,-999,0.00,,,0.00,,2013-01-02 08:32:00,
2013-01-02 02:42:00,14.0,-99.9,-100.00,WSW,248,2.0,3.0,-999,0.00,,,0.00,,2013-01-02 08:42:00,
2013-01-02 02:53:00,13.0,-99.9,-100.00,WSW,248,0.0,5.0,-999,0.00,,,0.00,,2013-01-02 08:53:00,
2013-01-02 03:02:00,14.0,-99.9,-100.00,WSW,248,0.0,3.0,-999,0.00,,,0.00,,2013-01-02 09:02:00,
2013-01-02 03:12:00,14.0,-99.9,-100.00,WSW,248,0.0,3.0,-999,0.00,,,0.00,,2013-01-02 09:12:00,
2013-01-02 03:22:00,14.0,-99.9,-100.00,WSW,248,1.0,2.0,-999,0.00,,,0.00,,2013-01-02 09:22:00,
2013-01-02 03:32:00,14.0,-99.9,-100.00,WSW,248,0.0,3.0,-999,0.00,,,0.00,,2013-01-02 09:32:00,
2013-01-02 03:43:00,14.0,-99.9,-100.00,WSW,248,0.0,3.0,-999,0.00,,,0.00,,2013-01-02 09:43:00,
2013-01-02 03:53:00,14.0,-99.9,-100.00,WSW,248,0.0,3.0,-999,0.00,,,0.00,,2013-01-02 09:53:00,
2013-01-02 04:02:00,14.0,-99.9,-100.00,WSW,248,0.0,2.0,-999,0.00,,,0.00,,2013-01-02 10:02:00,
2013-01-02 04:12:00,14.0,-99.9,-100.00,WSW,248,0.0,3.0,-999,0.00,,,0.00,,2013-01-02 10:12:00,
2013-01-02 04:22:00,14.0,-99.9,-100.00,WSW,248,0.0,3.0,-999,0.00,,,0.00,,2013-01-02 10:22:00,
2013-01-02 04:33:00,14.0,-99.9,-100.00,WSW,248,1.0,3.0,-999,0.00,,,0.00,,2013-01-02 10:33:00,
2013-01-02 04:43:00,14.0,-99.9,-100.00,WSW,248,1.0,3.0,-999,0.00,,,0.00,,2013-01-02 10:43:00,
2013-01-02 04:53:00,14.0,-99.9,-100.00,WSW,248,1.0,3.0,-999,0.00,,,0.00,,2013-01-02 10:53:00,
2013-01-02 05:02:00,14.0,-99.9,-100.00,WSW,248,1.0,3.0,-999,0.00,,,0.00,,2013-01-02 11:02:00,
2013-01-02 05:12:00,14.0,-99.9,-100.00,WSW,248,1.0,3.0,-999,0.00,,,0.00,,2013-01-02 11:12:00,
2013-01-02 05:22:00,14.0,-99.9,-100.00,WSW,248,2.0,3.0,-999,0.00,,,0.00,,2013-01-02 11:22:00,
2013-01-02 05:33:00,14.0,-99.9,-100.00,WSW,248,1.0,3.0,-999,0.00,,,0.00,,2013-01-02 11:33:00,
2013-01-02 05:43:00,14.0,-99.9,-100.00,WSW,248,1.0,3.0,-999,0.00,,,0.00,,2013-01-02 11:43:00,
2013-01-02 05:53:00,14.0,-99.9,-100.00,SW,225,1.0,5.0,-999,0.00,,,0.00,,2013-01-02 11:53:00,
2013-01-02 06:03:00,14.0,-99.9,-100.00,SW,225,1.0,2.0,-999,0.00,,,0.00,,2013-01-02 12:03:00,
2013-01-02 06:12:00,14.0,-99.9,-100.00,SW,225,1.0,2.0,-999,0.00,,,0.00,,2013-01-02 12:12:00,
2013-01-02 06:22:00,14.0,-99.9,-100.00,SW,225,0.0,2.0,-999,0.00,,,0.00,,2013-01-02 12:22:00,
2013-01-02 06:33:00,14.0,-99.9,-100.00,SW,225,1.0,3.0,-999,0.00,,,0.00,,2013-01-02 12:33:00,
2013-01-02 06:43:00,14.0,-99.9,-100.00,SW,225,1.0,3.0,-999,0.00,,,0.00,,2013-01-02 12:43:00,
2013-01-02 06:53:00,14.0,-99.9,-100.00,SW,225,1.0,2.0,-999,0.00,,,0.00,,2013-01-02 12:53:00,
2013-01-02 07:03:00,14.0,-99.9,-100.00,SW,225,2.0,3.0,-999,0.00,,,0.00,,2013-01-02 13:03:00,
2013-01-02 07:13:00,14.0,-99.9,-100.00,SW,225,2.0,3.0,-999,0.00,,,0.00,,2013-01-02 13:13:00,
2013-01-02 07:22:00,14.0,-99.9,-100.00,SW,225,1.0,3.0,-999,0.00,,,0.00,,2013-01-02 13:22:00,
2013-01-02 07:33:00,14.0,-99.9,-100.00,SSW,203,2.0,5.0,-999,0.00,,,0.00,,2013-01-02 13:33:00,
2013-01-02 07:43:00,14.0,-99.9,-100.00,SSW,203,2.0,5.0,-999,0.00,,,0.00,,2013-01-02 13:43:00,
2013-01-02 07:53:00,14.0,-99.9,-100.00,SSW,203,2.0,5.0,-999,0.00,,,0.00,,2013-01-02 13:53:00,
2013-01-02 08:03:00,14.0,-99.9,-100.00,SSW,203,1.0,5.0,-999,0.00,,,0.00,,2013-01-02 14:03:00,
2013-01-02 08:13:00,14.0,-99.9,-100.00,SSW,203,1.0,5.0,-999,0.00,,,0.00,,2013-01-02 14:13:00,
2013-01-02 08:23:00,15.0,-99.9,-100.00,SSW,203,2.0,3.0,-999,0.00,,,0.00,,2013-01-02 14:23:00,
2013-01-02 08:33:00,15.0,-99.9,-100.00,SSW,203,0.0,3.0,-999,0.00,,,0.00,,2013-01-02 14:33:00,
2013-01-02 08:43:00,15.0,-99.9,-100.00,SSW,203,0.0,3.0,-999,0.00,,,0.00,,2013-01-02 14:43:00,
2013-01-02 08:53:00,15.0,-99.9,-100.00,SSW,203,1.0,5.0,-999,0.00,,,0.00,,2013-01-02 14:53:00,
2013-01-02 09:03:00,16.0,-99.9,-100.00,SSW,203,1.0,5.0,-999,0.00,,,0.00,,2013-01-02 15:03:00,
2013-01-02 09:13:00,16.0,-99.9,-100.00,SSW,203,1.0,5.0,-999,0.00,,,0.00,,2013-01-02 15:13:00,
2013-01-02 09:23:00,16.0,-99.9,-100.00,SSW,203,2.0,5.0,-999,0.00,,,0.00,,2013-01-02 15:23:00,
2013-01-02 09:33:00,16.0,-99.9,-100.00,SSW,203,2.0,7.0,-999,0.00,,,0.00,,2013-01-02 15:33:00,
2013-01-02 09:43:00,16.0,-99.9,-100.00,SSW,203,2.0,7.0,-999,0.00,,,0.00,,2013-01-02 15:43:00,
2013-01-02 09:53:00,16.0,-99.9,-100.00,SSW,203,2.0,10.0,-999,0.00,,,0.00,,2013-01-02 15:53:00,
2013-01-02 10:03:00,16.0,-99.9,-100.00,SSW,203,7.0,14.0,-999,0.00,,,0.00,,2013-01-02 16:03:00,
2013-01-02 10:13:00,16.0,-99.9,-100.00,SSW,203,7.0,14.0,-999,0.00,,,0.00,,2013-01-02 16:13:00,
2013-01-02 10:22:00,16.0,-99.9,-100.00,SSW,203,5.0,10.0,-999,0.00,,,0.00,,2013-01-02 16:22:00,
2013-01-02 10:33:00,17.0,-99.9,-100.00,SSW,203,6.0,10.0,-999,0.00,,,0.00,,2013-01-02 16:33:00,
2013-01-02 10:43:00,17.0,-99.9,-100.00,SSW,203,6.0,10.0,-999,0.00,,,0.00,,2013-01-02 16:43:00,
2013-01-02 10:54:00,17.0,-99.9,-100.00,SSW,203,6.0,13.0,-999,0.00,,,0.00,,2013-01-02 16:54:00,
2013-01-02 11:04:00,17.0,-99.9,-100.00,SSW,203,2.0,12.0,-999,0.00,,,0.00,,2013-01-02 17:04:00,
2013-01-02 11:13:00,17.0,-99.9,-100.00,SSW,203,2.0,12.0,-999,0.00,,,0.00,,2013-01-02 17:13:00,
2013-01-02 11:23:00,18.0,-99.9,-100.00,SSW,203,6.0,10.0,-999,0.00,,,0.00,,2013-01-02 17:23:00,
2013-01-02 11:33:00,18.0,-99.9,-100.00,SSW,203,5.0,12.0,-999,0.00,,,0.00,,2013-01-02 17:33:00,
2013-01-02 11:43:00,18.0,-99.9,-100.00,SSW,203,5.0,12.0,-999,0.00,,,0.00,,2013-01-02 17:43:00,
2013-01-02 11:54:00,19.0,-99.9,-100.00,South,180,2.0,9.0,-999,0.00,,,0.00,,2013-01-02 17:54:00,
2013-01-02 12:03:00,20.0,-99.9,-100.00,SSW,203,6.0,12.0,-999,0.00,,,0.00,,2013-01-02 18:03:00,
2013-01-02 12:13:00,20.0,-99.9,-100.00,SSW,203,6.0,12.0,-999,0.00,,,0.00,,2013-01-02 18:13:00,
2013-01-02 12:23:00,21.0,-99.9,-100.00,South,180,3.0,8.0,-999,0.00,,,0.00,,2013-01-02 18:23:00,
2013-01-02 12:33:00,21.0,-99.9,-100.00,SW,225,5.0,12.0,-999,0.00,,,0.00,,2013-01-02 18:33:00,
2013-01-02 12:43:00,21.0,-99.9,-100.00,SW,225,5.0,12.0,-999,0.00,,,0.00,,2013-01-02 18:43:00,
2013-01-02 12:54:00,22.0,-99.9,-100.00,South,180,3.0,12.0,-999,0.00,,,0.00,,2013-01-02 18:54:00,
2013-01-02 13:03:00,21.0,-99.9,-100.00,SSW,203,5.0,12.0,-999,0.00,,,0.00,,2013-01-02 19:03:00,
2013-01-02 13:13:00,21.0,-99.9,-100.00,SSW,203,5.0,12.0,-999,0.00,,,0.00,,2013-01-02 19:13:00,
2013-01-02 13:23:00,21.0,-99.9,-100.00,South,180,3.0,13.0,-999,0.00,,,0.00,,2013-01-02 19:23:00,
2013-01-02 13:33:00,23.0,-99.9,-100.00,SW,225,5.0,10.0,-999,0.00,,,0.00,,2013-01-02 19:33:00,
2013-01-02 13:43:00,23.0,-99.9,-100.00,SW,225,5.0,10.0,-999,0.00,,,0.00,,2013-01-02 19:43:00,
2013-01-02 13:53:00,23.0,-99.9,-100.00,SSW,203,6.0,7.0,-999,0.00,,,0.00,,2013-01-02 19:53:00,
2013-01-02 14:03:00,23.0,-99.9,-100.00,SSW,203,3.0,8.0,-999,0.00,,,0.00,,2013-01-02 20:03:00,
2013-01-02 14:12:00,23.0,-99.9,-100.00,SSW,203,3.0,8.0,-999,0.00,,,0.00,,2013-01-02 20:12:00,
2013-01-02 14:23:00,22.0,-99.9,-100.00,South,180,2.0,8.0,-999,0.00,,,0.00,,2013-01-02 20:23:00,
2013-01-02 14:33:00,23.0,-99.9,-100.00,South,180,1.0,7.0,-999,0.00,,,0.00,,2013-01-02 20:33:00,
2013-01-02 14:43:00,23.0,-99.9,-100.00,South,180,1.0,7.0,-999,0.00,,,0.00,,2013-01-02 20:43:00,
2013-01-02 14:53:00,23.0,-99.9,-100.00,SW,225,7.0,12.0,-999,0.00,,,0.00,,2013-01-02 20:53:00,
2013-01-02 15:03:00,23.0,-99.9,-100.00,SW,225,3.0,13.0,-999,0.00,,,0.00,,2013-01-02 21:03:00,
2013-01-02 15:13:00,23.0,-99.9,-100.00,SW,225,3.0,13.0,-999,0.00,,,0.00,,2013-01-02 21:13:00,
2013-01-02 15:23:00,22.0,-99.9,-100.00,SSW,203,8.0,12.0,-999,0.00,,,0.00,,2013-01-02 21:23:00,
2013-01-02 15:33:00,22.0,-99.9,-100.00,SSW,203,5.0,12.0,-999,0.00,,,0.00,,2013-01-02 21:33:00,
2013-01-02 15:43:00,22.0,-99.9,-100.00,SSW,203,5.0,12.0,-999,0.00,,,0.00,,2013-01-02 21:43:00,
2013-01-02 15:53:00,22.0,-99.9,-100.00,SW,225,2.0,8.0,-999,0.00,,,0.00,,2013-01-02 21:53:00,
2013-01-02 16:03:00,22.0,-99.9,-100.00,SSW,203,3.0,7.0,-999,0.00,,,0.00,,2013-01-02 22:03:00,
2013-01-02 16:13:00,22.0,-99.9,-100.00,SSW,203,3.0,7.0,-999,0.00,,,0.00,,2013-01-02 22:13:00,
2013-01-02 16:22:00,21.0,-99.9,-100.00,SSW,203,3.0,10.0,-999,0.00,,,0.00,,2013-01-02 22:22:00,
2013-01-02 16:33:00,21.0,-99.9,-100.00,SSW,203,2.0,6.0,-999,0.00,,,0.00,,2013-01-02 22:33:00,
2013-01-02 16:43:00,21.0,-99.9,-100.00,SSW,203,2.0,6.0,-999,0.00,,,0.00,,2013-01-02 22:43:00,
2013-01-02 16:53:00,21.0,-99.9,-100.00,SSW,203,3.0,6.0,-999,0.00,,,0.00,,2013-01-02 22:53:00,
2013-01-02 17:03:00,21.0,-99.9,-100.00,SSW,203,1.0,7.0,-999,0.00,,,0.00,,2013-01-02 23:03:00,
2013-01-02 17:13:00,21.0,-99.9,-100.00,SW,225,5.0,8.0,-999,0.00,,,0.00,,2013-01-02 23:13:00,
2013-01-02 17:23:00,21.0,-99.9,-100.00,SW,225,5.0,8.0,-999,0.00,,,0.00,,2013-01-02 23:23:00,
2013-01-02 17:33:00,20.0,-99.9,-100.00,SSW,203,1.0,6.0,-999,0.00,,,0.00,,2013-01-02 23:33:00,
2013-01-02 17:43:00,20.0,-99.9,-100.00,SSW,203,1.0,6.0,-999,0.00,,,0.00,,2013-01-02 23:43:00,
2013-01-02 17:53:00,20.0,-99.9,-100.00,SSW,203,2.0,5.0,-999,0.00,,,0.00,,2013-01-02 23:53:00,
2013-01-02 18:03:00,20.0,-99.9,-100.00,South,180,2.0,6.0,-999,0.00,,,0.00,,2013-01-03 00:03:00,
2013-01-02 18:12:00,20.0,-99.9,-100.00,South,180,2.0,6.0,-999,0.00,,,0.00,,2013-01-03 00:12:00,
2013-01-02 18:23:00,20.0,-99.9,-100.00,SSW,203,0.0,3.0,-999,0.00,,,0.00,,2013-01-03 00:23:00,
2013-01-02 18:38:00,20.0,-99.9,-100.00,SSW,203,0.0,3.0,-999,0.00,,,0.00,,2013-01-03 00:38:00,
2013-01-02 18:53:00,20.0,-99.9,-100.00,SSW,203,1.0,2.0,-999,0.00,,,0.00,,2013-01-03 00:53:00,
2013-01-02 19:03:00,20.0,-99.9,-100.00,SSW,203,0.0,2.0,-999,0.00,,,0.00,,2013-01-03 01:03:00,
2013-01-02 19:12:00,20.0,-99.9,-100.00,SSW,203,0.0,2.0,-999,0.00,,,0.00,,2013-01-03 01:12:00,
2013-01-02 19:23:00,19.0,-99.9,-100.00,SSW,203,2.0,3.0,-999,0.00,,,0.00,,2013-01-03 01:23:00,
2013-01-02 19:33:00,19.0,-99.9,-100.00,SW,225,1.0,5.0,-999,0.00,,,0.00,,2013-01-03 01:33:00,
2013-01-02 19:43:00,19.0,-99.9,-100.00,SW,225,1.0,5.0,-999,0.00,,,0.00,,2013-01-03 01:43:00,
2013-01-02 19:53:00,19.0,-99.9,-100.00,SW,225,2.0,6.0,-999,0.00,,,0.00,,2013-01-03 01:53:00,
2013-01-02 20:02:00,19.0,-99.9,-100.00,SW,225,2.0,5.0,-999,0.00,,,0.00,,2013-01-03 02:02:00,
2013-01-02 20:12:00,19.0,-99.9,-100.00,SW,225,2.0,5.0,-999,0.00,,,0.00,,2013-01-03 02:12:00,
2013-01-02 20:23:00,19.0,-99.9,-100.00,SW,225,5.0,8.0,-999,0.00,,,0.00,,2013-01-03 02:23:00,
2013-01-02 20:33:00,18.0,-99.9,-100.00,SW,225,5.0,9.0,-999,0.00,,,0.00,,2013-01-03 02:33:00,
2013-01-02 20:43:00,18.0,-99.9,-100.00,SW,225,5.0,9.0,-999,0.00,,,0.00,,2013-01-03 02:43:00,
2013-01-02 20:53:00,18.0,-99.9,-100.00,SW,225,5.0,9.0,-999,0.00,,,0.00,,2013-01-03 02:53:00,
2013-01-02 21:03:00,18.0,-99.9,-100.00,SW,225,3.0,7.0,-999,0.00,,,0.00,,2013-01-03 03:03:00,
2013-01-02 21:12:00,18.0,-99.9,-100.00,SW,225,2.0,6.0,-999,0.00,,,0.00,,2013-01-03 03:12:00,
2013-01-02 21:22:00,18.0,-99.9,-100.00,SW,225,2.0,6.0,-999,0.00,,,0.00,,2013-01-03 03:22:00,
2013-01-02 21:47:00,18.0,-99.9,-100.00,SW,225,3.0,6.0,-999,0.00,,,0.00,,2013-01-03 03:47:00,
2013-01-02 21:53:00,18.0,-99.9,-100.00,SW,225,2.0,6.0,-999,0.00,,,0.00,,2013-01-03 03:53:00,
2013-01-02 22:03:00,18.0,-99.9,-100.00,SW,225,1.0,5.0,-999,0.00,,,0.00,,2013-01-03 04:03:00,
2013-01-02 22:12:00,18.0,-99.9,-100.00,SW,225,1.0,5.0,-999,0.00,,,0.00,,2013-01-03 04:12:00,
2013-01-02 22:22:00,18.0,-99.9,-100.00,SW,225,0.0,3.0,-999,0.00,,,0.00,,2013-01-03 04:22:00,
2013-01-02 22:33:00,18.0,-99.9,-100.00,SW,225,0.0,3.0,-999,0.00,,,0.00,,2013-01-03 04:33:00,
2013-01-02 22:43:00,18.0,-99.9,-100.00,SW,225,0.0,3.0,-999,0.00,,,0.00,,2013-01-03 04:43:00,
2013-01-02 22:53:00,18.0,-99.9,-100.00,WNW,293,1.0,6.0,-999,0.00,,,0.00,,2013-01-03 04:53:00,
2013-01-02 23:04:00,18.0,-99.9,-100.00,West,270,2.0,5.0,-999,0.00,,,0.00,,2013-01-03 05:04:00,
2013-01-02 23:12:00,18.0,-99.9,-100.00,West,270,0.0,9.0,-999,0.00,,,0.00,,2013-01-03 05:12:00,
2013-01-02 23:23:00,18.0,-99.9,-100.00,West,270,0.0,9.0,-999,0.00,,,0.00,,2013-01-03 05:23:00,
2013-01-02 23:33:00,18.0,-99.9,-100.00,West,270,0.0,3.0,-999,0.00,,,0.00,,2013-01-03 05:33:00,
2013-01-02 23:43:00,18.0,-99.9,-100.00,West,270,0.0,3.0,-999,0.00,,,0.00,,2013-01-03 05:43:00,
2013-01-02 23:53:00,18.0,-99.9,-100.00,West,270,0.0,5.0,-999,0.00,,,0.00,,2013-01-03 05:53:00,